Temperature
17 17 17 17 17 17 17 17 17 17 17 17 17 17 17 17 17 17 17 18 18 18 18 18 18 18 18 18 18 18 18 18 18 18 18 18 18 18 18 18 18 17 18
17 17 17 17 17 17 17 17 17 17 17 17 17 17 17 17 17 17 17 17 17 17 18 18 18 18 18 18 18 18 18 18 18 18 18 18 18 18 18 18 18 18 18
17 17 17 17 17 17 17 17 17 17 17 17 17 17 17 17 17 17 17 17 17 17 17 17 17 17 18 18 18 18 18 18 18 18 17 17 17 18 18 18 18 18 18
16 16 16 17 17 17 17 17 17 17 17 17 17 17 17 16 17 17 17 17 17 17 17 17 17 17 17 17 18 18 18 18 18 18 17 17 17 17 18 18 18 18 18
16 16 16 17 17 17 17 17 17 16 16 16 16 16 16 16 16 16 16 16 16 16 17 17 17 17 17 17 17 17 18 18 18 17 17 17 17 17 17 17 18 18 18
16 16 16 16 16 16 16 16 16 16 16 16 16 16 16 16 16 16 16 16 16 16 16 16 17 17 17 17 17 17 17 17 17 17 17 17 17 17 17 17 17 18 18
16 16 16 16 16 16 16 16 16 16 16 16 16 16 16 16 16 16 16 16 16 16 16 16 16 16 17 17 17 17 17 17 16 16 16 16 17 17 17 17 17 17 18
16 16 16 16 16 16 16 16 16 16 16 16 16 16 16 16 16 16 16 16 16 16 16 16 16 16 17 17 17 17 17 17 16 16 16 16 17 17 17 17 17 17 17
16 16 16 16 16 16 16 16 16 16 16 16 16 15 15 16 16 15 15 15 16 16 16 16 16 16 16 16 16 17 17 17 16 16 16 16 17 17 17 17 17 17 17
16 16 16 16 15 15 15 16 16 15 15 15 15 15 15 15 15 15 15 15 16 16 16 16 16 16 16 16 16 16 17 16 16 16 16 16 17 17 17 17 17 17 17
16 16 16 16 16 16 15 15 15 15 15 15 15 15 15 15 15 15 15 15 16 16 16 16 16 16 16 16 16 16 16 16 16 16 16 16 17 17 17 17 17 17 17
17 16 16 16 16 16 16 16 15 15 15 15 15 15 15 15 15 15 15 15 15 16 16 16 16 16 16 16 16 16 16 16 16 16 16 16 17 17 17 17 17 17 17
17 16 16 16 16 16 16 16 16 16 15 15 15 15 15 15 15 15 15 15 15 15 15 15 16 16 16 16 16 16 16 16 16 16 16 16 16 16 16 16 16 16 17
17 17 16 16 16 16 16 16 16 16 16 15 15 15 15 15 15 15 15 15 15 15 15 15 15 15 16 16 16 16 16 16 16 15 16 16 16 16 16 16 16 16 16
17 17 16 16 17 16 16 16 16 16 16 16 15 15 15 15 15 15 15 15 15 15 15 15 15 15 15 16 15 15 16 15 15 15 15 16 16 16 16 16 16 16 16
17 17 16 16 16 16 16 16 16 16 16 16 15 15 15 15 15 15 16 15 15 15 15 15 15 15 15 15 15 15 15 15 15 15 15 15 15 16 16 16 16 16 16
17 17 17 16 16 16 16 16 16 16 16 16 16 16 16 16 16 16 16 15 15 15 15 15 15 15 15 15 15 15 15 15 15 15 15 14 15 15 15 16 16 15 15
17 17 17 16 16 16 16 16 16 16 16 16 16 16 16 16 16 16 15 15 15 15 15 15 15 15 15 15 15 15 15 15 15 14 14 14 14 14 15 15 15 15 15
17 17 17 16 16 16 16 16 16 16 15 15 16 15 16 16 16 15 15 15 15 15 15 15 15 15 15 15 15 15 15 14 14 14 14 14 14 14 14 15 15 15 15
17 17 17 16 16 16 16 16 16 15 15 15 15 15 15 15 15 15 15 15 15 15 15 15 15 15 15 15 15 15 14 14 14 14 14 14 14 14 14 14 14 14 15
17 17 17 16 16 16 16 16 16 15 15 15 15 15 15 15 15 15 15 15 15 15 15 15 15 15 15 15 15 15 14 14 14 14 14 14 14 14 14 14 14 14 14
17 17 17 17 16 16 16 16 15 15 15 15 15 15 15 15 15 15 15 15 15 15 15 15 15 15 15 15 15 15 15 14 13 14 14 14 14 14 14 13 13 14 14
17 17 17 17 16 16 16 15 15 15 15 15 15 15 15 15 15 15 15 15 15 15 15 15 15 15 15 15 15 15 16 15 14 13 13 13 14 13 13 13 13 13 13
17 17 17 16 16 16 16 16 15 15 15 15 15 15 15 15 15 15 15 15 15 15 15 15 15 15 15 15 15 15 15 15 15 14 13 13 13 13 13 13 13 13 13
17 17 17 16 16 16 16 16 15 15 15 15 15 15 15 15 15 15 15 15 15 15 15 15 15 15 15 15 15 15 15 15 15 15 14 13 13 13 13 13 13 13 13
17 17 17 16 16 16 16 16 15 15 15 15 15 15 15 15 15 15 15 15 15 15 15 15 15 15 15 15 15 15 15 15 15 15 15 14 13 13 13 13 13 13 13
Wind_Speed
3 4 5 5 6 7 8 8 8 9 10 9 9 9 10 10 10 11 11 11 11 11 11 11 10 10 10 10 10 9 9 9 9 8 8 8 8 8 7 7 4 6 7
4 5 6 6 6 7 8 9 10 10 10 10 10 10 10 10 10 11 11 11 10 11 11 11 10 10 10 10 10 9 9 9 9 8 6 7 8 8 8 8 8 7 6
5 6 7 7 7 8 9 10 10 10 10 10 9 9 10 9 10 10 10 10 10 10 11 10 10 10 10 10 10 9 8 8 8 5 2 4 8 9 8 8 8 7 7
6 6 8 8 8 9 9 9 10 10 10 9 9 8 8 8 8 9 9 9 9 10 10 9 9 9 9 9 9 8 8 8 6 1 3 6 7 10 8 8 8 8 7
7 8 10 9 10 10 11 10 10 10 9 9 8 8 8 8 8 9 9 8 8 9 9 8 9 9 9 9 8 8 8 7 4 3 6 6 7 9 9 9 8 8 8
8 9 12 11 12 11 11 11 10 10 9 9 8 8 8 8 8 8 8 7 8 8 8 7 8 8 8 8 8 8 7 5 2 6 6 6 7 9 9 9 8 8 8
8 9 12 11 11 11 11 10 10 10 10 9 9 8 9 9 8 8 8 8 8 8 8 7 7 8 8 8 8 7 7 4 5 6 6 7 9 9 9 9 8 8 8
8 8 10 11 10 11 11 10 10 10 10 10 10 9 9 9 8 8 8 8 8 8 8 7 8 8 8 8 7 7 6 4 6 6 6 8 9 8 8 8 8 8 8
7 7 7 8 10 10 10 9 9 9 9 9 9 9 9 9 8 7 7 8 8 8 7 7 8 8 8 8 8 8 7 5 5 5 6 8 9 8 8 8 9 8 8
7 6 7 7 7 7 9 10 9 9 9 9 9 9 8 8 8 7 7 8 7 7 6 7 7 8 8 8 8 8 6 2 6 6 7 9 9 8 8 8 8 8 9
6 6 6 6 6 6 7 8 7 8 7 6 8 7 4 6 7 7 9 8 7 6 6 6 7 7 7 8 8 6 3 5 7 7 8 10 9 9 9 9 9 9 9
7 6 5 5 5 5 5 5 5 6 5 5 6 6 5 6 6 7 9 7 7 7 7 6 6 5 4 6 7 3 4 6 6 7 10 11 10 10 10 9 9 9 10
6 5 4 4 4 4 4 4 4 4 4 5 5 5 4 5 5 5 5 6 6 5 5 6 5 4 5 5 5 5 5 6 6 8 11 12 11 11 10 10 10 10 10
5 4 3 3 3 4 4 4 3 3 3 4 4 4 4 4 4 4 4 5 4 4 4 4 4 6 6 7 7 6 6 6 6 7 12 14 13 13 11 11 10 10 10
4 4 3 3 4 5 4 3 3 4 3 5 3 3 4 4 4 4 4 4 4 5 5 4 5 7 6 7 7 7 7 8 8 8 10 14 15 14 13 12 11 11 10
4 4 3 3 3 4 4 3 4 4 4 4 4 3 4 4 4 3 5 4 5 5 5 5 7 6 6 7 7 8 8 8 8 8 8 10 14 14 14 13 12 12 12
4 4 4 3 3 3 4 4 4 3 4 4 4 4 5 5 5 4 4 4 5 6 6 6 7 7 6 7 7 7 8 8 8 8 8 7 9 13 15 15 14 13 13
4 5 5 4 3 4 4 4 4 4 4 4 3 3 4 5 5 5 4 4 5 5 5 5 5 5 6 6 6 6 7 7 7 7 8 8 8 8 12 15 15 15 15
5 5 6 5 4 3 4 4 4 4 3 3 4 3 3 4 4 4 4 4 5 5 4 5 5 5 6 6 6 6 6 6 6 7 7 8 9 9 9 12 13 15 16
6 6 6 5 4 4 3 3 3 3 3 4 4 4 3 2 3 4 4 4 5 4 4 4 5 5 5 5 6 6 6 5 6 6 6 7 9 10 10 10 9 11 14
7 7 6 6 6 4 3 2 3 3 3 3 4 4 2 2 2 3 3 4 4 4 4 5 5 6 5 5 5 5 5 6 6 5 5 6 7 8 9 10 10 9 9
8 8 7 6 6 5 2 2 2 3 3 3 2 3 2 2 2 3 3 4 4 4 4 5 4 4 4 2 2 2 2 3 4 5 4 5 6 7 8 10 10 10 10
9 9 7 7 7 5 4 3 3 3 3 3 2 2 3 3 3 3 3 3 4 4 4 4 4 3 3 2 0 0 0 2 2 3 4 4 5 5 6 8 9 10 10
10 9 8 8 7 6 5 4 4 3 3 2 2 3 3 3 3 3 3 3 3 3 4 4 3 2 2 2 1 1 2 2 1 2 3 4 5 5 6 6 7 9 10
10 9 8 8 7 6 5 5 4 3 3 3 3 3 3 4 4 3 3 3 3 2 2 2 2 2 2 1 1 1 2 1 0 1 2 2 3 4 4 5 6 7 9
9 9 8 8 7 6 6 6 5 4 4 4 4 4 3 3 3 3 3 3 3 2 2 2 2 2 1 1 1 1 1 1 1 1 2 2 3 3 3 4 5 6 7
Wind_Direction
47 56 66 84 87 93 98 104 107 107 106 110 111 111 109 107 104 103 103 99 95 93 93 93 93 93 92 90 89 86 82 80 77 71 70 68 63 61 58 52 43 79 73
58 66 78 83 87 93 101 104 104 103 102 100 100 102 105 105 102 100 98 99 97 95 94 90 89 90 88 85 85 83 81 79 75 71 71 85 72 63 59 54 39 56 62
69 73 87 85 88 94 99 101 100 102 103 100 98 97 100 103 102 103 102 99 97 95 94 92 90 88 86 84 82 79 80 79 77 75 66 79 83 67 59 58 59 61 59
74 76 80 86 91 94 96 100 102 102 103 107 104 99 97 101 100 98 100 97 95 95 95 94 93 89 87 86 82 79 80 78 72 51 68 61 66 66 59 59 59 60 58
81 80 81 82 88 89 89 92 97 97 100 104 106 103 102 100 100 97 95 94 92 93 95 96 94 89 84 81 80 80 81 77 73 49 61 62 62 63 59 56 54 55 52
86 85 83 79 82 87 90 92 92 91 94 97 101 104 103 99 101 102 98 96 93 94 93 93 93 90 85 82 79 80 83 77 95 70 65 65 65 64 59 57 51 47 44
84 81 86 80 80 81 85 86 87 86 87 90 90 93 98 97 98 98 97 94 93 94 93 92 95 92 86 81 78 78 78 59 68 74 70 66 63 59 57 54 48 42 38
88 86 88 89 82 78 77 79 81 82 82 81 83 83 86 88 89 91 94 95 97 98 94 91 93 88 84 78 77 78 68 21 79 70 64 63 58 54 54 51 47 42 37
94 90 87 90 92 90 80 74 76 77 79 80 81 82 83 81 82 87 91 95 97 93 91 88 87 90 85 77 76 78 73 45 64 60 62 61 56 51 53 52 48 41 38
101 94 89 86 81 85 88 78 74 75 78 80 82 83 89 98 96 97 102 93 94 92 92 92 92 92 85 78 77 79 80 78 61 59 52 60 54 52 54 52 47 42 38
108 98 94 92 85 81 80 86 89 89 86 102 99 97 110 103 100 104 82 88 93 94 94 96 97 99 100 96 85 83 77 66 63 51 51 53 53 54 54 52 46 43 39
117 106 96 89 90 87 83 88 85 85 85 76 79 87 88 83 83 88 96 92 94 97 100 96 109 135 152 115 109 112 78 68 59 57 57 51 53 54 52 50 47 45 42
113 108 104 94 91 93 93 85 80 83 87 84 80 91 95 99 106 103 110 118 115 123 108 117 139 113 107 94 92 88 72 64 58 57 57 51 52 50 49 49 46 45 43
126 117 111 104 100 97 96 91 91 90 86 79 78 83 92 95 92 94 94 89 99 100 98 104 97 100 99 104 100 94 87 71 65 65 58 51 48 45 47 52 47 44 42
138 136 112 92 86 91 90 91 94 88 80 87 76 80 89 99 98 100 94 90 87 91 103 100 106 98 98 92 88 85 83 76 69 66 68 57 50 46 47 49 46 44 42
153 139 131 117 99 97 101 101 87 85 89 80 86 89 91 96 100 100 99 92 87 87 87 100 102 101 94 86 82 80 75 76 71 68 66 67 60 50 46 45 45 44 43
153 146 130 118 106 97 94 89 86 83 84 84 81 87 96 97 98 95 95 100 94 97 99 98 102 99 97 96 88 80 73 67 66 64 59 51 61 62 53 47 45 43 42
164 157 144 143 124 107 106 101 89 82 83 84 82 76 93 97 95 92 95 101 100 102 104 104 103 99 97 94 87 79 77 73 66 61 59 53 48 52 60 55 49 44 42
171 164 154 148 138 123 110 107 94 91 87 82 81 76 85 97 106 104 97 105 109 108 109 110 106 105 104 99 95 86 78 73 66 60 57 53 52 48 51 61 57 48 41
170 169 157 149 150 135 132 126 115 101 91 78 75 77 72 99 106 108 116 118 118 120 115 108 110 105 103 105 99 88 76 73 67 60 54 52 49 47 43 41 46 52 47
176 178 172 167 164 162 155 148 137 124 112 98 78 69 81 105 113 114 130 120 126 128 127 128 121 122 119 119 113 101 88 74 71 66 57 54 56 49 46 42 37 32 42
183 186 182 173 171 174 168 146 140 127 116 99 95 95 94 113 131 136 142 135 135 135 139 135 138 139 134 151 133 131 130 108 76 61 58 53 50 50 46 42 39 35 32
188 191 186 177 178 181 174 158 152 144 151 140 119 89 79 97 122 138 135 139 140 154 149 157 161 159 150 153 46 299 145 106 108 86 64 61 52 46 47 41 39 37 36
190 188 189 183 183 179 179 180 174 169 152 130 119 112 109 104 117 129 135 145 142 143 153 168 165 179 181 170 144 17 16 78 141 124 107 80 65 51 43 42 40 39 37
185 185 188 182 182 179 184 176 187 175 156 144 144 131 127 113 115 126 134 144 145 147 162 164 172 204 203 211 178 138 109 113 175 114 115 108 88 62 48 41 42 39 37
182 182 185 183 182 178 183 183 185 171 169 160 158 143 141 130 119 121 132 147 148 150 158 170 177 185 212 178 217 193 197 198 160 135 129 123 93 75 61 47 42 43 41
Height
1537 1536 1535 1535 1535 1535 1536 1536 1536 1537 1537 1538 1538 1539 1539 1540 1540 1541 1542 1542 1543 1543 1543 1544 1544 1544 1544 1545 1545 1545 1545 1545 1545 1545 1545 1545 1545 1545 1544 1544 1544 1544 1543
1537 1537 1536 1536 1536 1536 1536 1537 1537 1537 1538 1538 1539 1539 1540 1541 1542 1542 1543 1543 1544 1544 1545 1545 1545 1545 1546 1546 1546 1546 1546 1546 1546 1546 1546 1546 1546 1546 1545 1545 1545 1545 1544
1538 1538 1537 1536 1536 1537 1537 1537 1538 1538 1539 1539 1540 1540 1541 1542 1542 1543 1544 1544 1545 1545 1546 1546 1546 1547 1547 1547 1547 1548 1548 1548 1548 1548 1548 1549 1548 1547 1546 1546 1546 1545 1545
1539 1539 1538 1537 1537 1538 1538 1538 1538 1539 1539 1540 1540 1541 1542 1542 1543 1544 1545 1545 1546 1546 1547 1547 1547 1548 1548 1548 1548 1549 1549 1549 1549 1549 1550 1550 1549 1548 1547 1547 1547 1546 1546
1541 1541 1540 1539 1539 1539 1539 1539 1540 1540 1540 1541 1541 1542 1542 1543 1544 1544 1545 1546 1546 1547 1547 1548 1548 1549 1549 1549 1549 1550 1550 1550 1550 1550 1550 1550 1550 1549 1548 1548 1547 1547 1547
1543 1543 1542 1541 1541 1541 1541 1541 1541 1541 1542 1542 1542 1543 1543 1544 1544 1545 1546 1546 1547 1548 1548 1549 1549 1549 1550 1550 1550 1551 1551 1551 1551 1552 1551 1551 1551 1550 1549 1549 1548 1548 1547
1544 1545 1544 1543 1543 1543 1543 1543 1543 1543 1543 1543 1544 1544 1544 1545 1545 1546 1546 1547 1548 1548 1549 1549 1550 1550 1551 1551 1551 1552 1552 1552 1553 1553 1553 1552 1551 1551 1550 1550 1549 1548 1548
1546 1546 1546 1545 1545 1545 1545 1545 1545 1545 1545 1545 1545 1545 1545 1546 1546 1547 1547 1548 1548 1549 1549 1550 1551 1551 1551 1552 1552 1553 1553 1553 1555 1555 1554 1553 1552 1551 1551 1550 1550 1549 1548
1548 1548 1548 1548 1548 1547 1547 1546 1547 1547 1546 1546 1546 1547 1547 1547 1548 1548 1549 1549 1549 1550 1551 1551 1552 1552 1553 1553 1553 1554 1554 1554 1556 1556 1556 1554 1553 1552 1552 1551 1550 1550 1549
1550 1550 1550 1550 1550 1550 1550 1549 1548 1548 1548 1548 1548 1548 1548 1549 1549 1550 1550 1550 1551 1551 1551 1552 1552 1553 1554 1554 1555 1555 1555 1556 1557 1557 1557 1555 1554 1553 1553 1552 1551 1550 1549
1552 1552 1552 1552 1552 1552 1552 1551 1551 1550 1550 1551 1551 1550 1551 1552 1552 1552 1552 1552 1552 1552 1552 1553 1553 1554 1555 1555 1556 1556 1557 1558 1558 1558 1557 1556 1555 1554 1553 1553 1552 1551 1549
1554 1554 1554 1554 1554 1554 1553 1553 1553 1553 1553 1553 1553 1553 1553 1553 1553 1553 1553 1553 1553 1553 1554 1554 1554 1555 1556 1558 1557 1558 1559 1559 1559 1559 1558 1556 1556 1555 1554 1553 1552 1551 1550
1555 1555 1555 1555 1555 1555 1555 1555 1555 1555 1555 1555 1555 1554 1554 1555 1555 1555 1556 1555 1555 1555 1556 1555 1556 1557 1558 1558 1559 1560 1560 1560 1560 1560 1558 1557 1557 1556 1555 1554 1553 1552 1551
1556 1556 1556 1556 1556 1556 1556 1556 1556 1557 1557 1557 1556 1556 1556 1556 1557 1557 1557 1557 1557 1557 1557 1557 1558 1559 1559 1560 1560 1561 1561 1561 1561 1561 1559 1558 1557 1557 1556 1555 1554 1553 1552
1556 1557 1557 1557 1557 1557 1557 1557 1558 1558 1558 1558 1557 1558 1558 1558 1558 1558 1558 1558 1558 1558 1558 1558 1559 1560 1560 1561 1561 1562 1562 1562 1562 1562 1560 1559 1558 1557 1556 1555 1554 1553 1552
1557 1557 1558 1558 1558 1558 1558 1559 1559 1559 1559 1559 1559 1559 1559 1559 1559 1559 1560 1559 1559 1559 1560 1560 1561 1561 1562 1562 1562 1563 1563 1563 1563 1562 1561 1560 1559 1558 1557 1556 1555 1554 1553
1557 1558 1558 1558 1559 1559 1559 1560 1560 1560 1560 1560 1560 1561 1561 1561 1561 1561 1561 1561 1561 1561 1561 1561 1562 1562 1563 1563 1564 1564 1564 1564 1564 1563 1563 1562 1561 1559 1558 1557 1556 1555 1554
1557 1558 1558 1559 1559 1560 1560 1560 1561 1561 1561 1561 1561 1562 1562 1562 1562 1562 1562 1562 1562 1563 1563 1563 1563 1564 1564 1565 1565 1565 1565 1565 1565 1564 1564 1563 1562 1561 1559 1558 1557 1556 1554
1557 1558 1559 1559 1560 1560 1560 1561 1561 1562 1562 1562 1562 1563 1563 1563 1564 1564 1563 1564 1564 1564 1565 1565 1565 1565 1566 1566 1566 1566 1566 1566 1566 1566 1565 1564 1563 1562 1561 1559 1558 1557 1555
1556 1558 1559 1559 1560 1561 1561 1562 1562 1563 1563 1563 1563 1563 1563 1564 1564 1565 1565 1565 1565 1566 1566 1566 1566 1566 1567 1568 1568 1568 1568 1568 1567 1567 1566 1565 1564 1563 1562 1561 1560 1558 1556
1556 1557 1559 1559 1560 1561 1562 1563 1563 1564 1564 1564 1564 1564 1564 1564 1565 1565 1566 1566 1566 1567 1567 1568 1568 1568 1569 1569 1570 1570 1570 1569 1569 1568 1567 1567 1566 1564 1563 1562 1561 1559 1558
1555 1557 1559 1560 1560 1561 1562 1563 1563 1564 1564 1564 1564 1565 1565 1565 1565 1566 1566 1567 1567 1567 1568 1569 1569 1570 1570 1570 1571 1571 1572 1573 1570 1570 1569 1568 1567 1566 1565 1564 1562 1560 1559
1554 1556 1558 1559 1560 1561 1562 1563 1563 1564 1565 1565 1565 1565 1565 1565 1566 1566 1567 1567 1568 1569 1569 1569 1570 1570 1571 1571 1572 1572 1572 1572 1572 1572 1571 1570 1569 1568 1567 1565 1564 1562 1560
1553 1555 1557 1559 1560 1561 1562 1563 1564 1564 1565 1565 1566 1566 1566 1566 1566 1566 1567 1568 1569 1569 1570 1570 1571 1571 1571 1572 1571 1571 1572 1572 1573 1573 1573 1572 1570 1569 1568 1567 1565 1563 1561
1551 1554 1556 1558 1559 1560 1561 1562 1563 1564 1565 1565 1565 1566 1567 1567 1567 1567 1567 1568 1569 1569 1570 1570 1570 1571 1572 1572 1572 1572 1572 1572 1573 1573 1574 1574 1572 1571 1569 1568 1566 1564 1562
1549 1552 1554 1556 1558 1559 1560 1562 1563 1563 1564 1565 1565 1566 1567 1567 1567 1568 1568 1569 1569 1570 1570 1570 1570 1571 1571 1572 1572 1572 1573 1573 1573 1573 1574 1573 1573 1572 1571 1569 1568 1566 1564